Location: Angwan Shehu
(11.2514°N, 7.4613°E)
Time: 06:17:03
(UTC+00:00)

SR - Pass Details

Date: 21 April 2021
Orbit: 573 x 882 km, 66.7° (Epoch: 12 May)

Event Time Altitude Azimuth Distance (km) Brightness Sun altitude
Rises 16:12:56 0° 348° (NNW) 3,322 ? 20.6°
Reaches altitude 10° 16:15:33 10° 354° (N) 2,346 ? 20.0°
Maximum altitude 16:20:42 46° 68° (ENE) 983 ? 18.8°
Drops below altitude 10° 16:25:24 10° 141° (SE) 2,148 ? 17.6°
Sets 16:27:42 0° 147° (SSE) 3,014 ? 17.1°
